FW5161 Weather Reports


Display with metric or nautical units.
time (UTC)temp
F
wind
direction
speed
MPH
gust
MPH
rain 1hr
in
rain 24hr
in
rain mn
in
humidity
%
barometer
mb
20260502162326 55 49 2.0 7.0 0.00 0.00 0.00 86 1017.1
20260502161823 55 23 2.0 7.0 0.00 0.00 0.00 86 1017.2
20260502161322 56 97 2.0 7.0 0.00 0.00 0.00 86 1017.2
20260502161053 55 345 2.0 11.0 0.00 0.00 0.00 86 1017.1
20260502160320 55 258 3.0 11.0 0.00 0.00 0.00 87 1017.1
20260502152318 56 124 3.0 9.0 0.00 0.00 0.00 85 1017.1
20260502151817 55 128 4.0 9.0 0.00 0.00 0.00 85 1017.2
20260502151555 55 94 4.0 8.0 0.00 0.00 0.00 86 1017.1
20260502150816 55 72 3.0 8.0 0.00 0.00 0.00 86 1017.1
20260502150310 55 99 3.0 10.0 0.00 0.00 0.00 86 1017.1
20260502130739 55 239 2.0 8.0 0.00 0.00 0.00 83 1016.4
20260502130237 55 267 2.0 8.0 0.00 0.00 0.00 83 1016.2
20260502123231 55 332 2.0 7.0 0.00 0.00 0.00 83 1016.2
20260502122729 55 246 2.0 6.0 0.00 0.00 0.00 83 1016.2
20260502122502 55 307 3.0 7.0 0.00 0.00 0.00 83 1016.2
20260502121729 55 214 2.0 7.0 0.00 0.00 0.00 83 1016.2
20260502121230 55 290 2.0 6.0 0.00 0.00 0.00 82 1016.1
20260502120729 55 302 2.0 7.0 0.00 0.00 0.00 82 1016.1
20260502120232 55 117 2.0 7.0 0.00 0.00 0.00 81 1016.1
20260502115731 55 218 2.0 8.0 0.00 0.00 0.00 81 1016.1
20260502115230 56 274 2.0 8.0 0.00 0.00 0.00 80 1016.2
20260502114729 56 259 2.0 6.0 0.00 0.00 0.00 80 1016.2
20260502114230 56 118 2.0 6.0 0.00 0.00 0.00 80 1016.2
20260502113729 56 285 2.0 8.0 0.00 0.00 0.00 80 1016.2
20260502113230 56 285 2.0 8.0 0.00 0.00 0.00 79 1016.1
20260502112951 56 189 2.0 6.0 0.00 0.00 0.00 78 1016.2
20260502112229 56 274 2.0 8.0 0.00 0.00 0.00 78 1016.1
20260502111729 56 132 2.0 8.0 0.00 0.00 0.00 78 1016.0
20260502111228 56 209 2.0 11.0 0.00 0.00 0.00 78 1016.0
20260502110729 56 269 2.0 11.0 0.00 0.00 0.00 78 1015.9
20260502110228 56 121 2.0 6.0 0.00 0.00 0.00 78 1015.9
20260502105728 57 290 2.0 8.0 0.00 0.00 0.00 78 1015.9
20260502105227 57 255 2.0 8.0 0.00 0.00 0.00 78 1015.8
20260502104727 57 241 2.0 6.0 0.00 0.00 0.00 78 1015.8
20260502104226 57 75 2.0 6.0 0.00 0.00 0.00 78 1015.7
20260502103726 57 143 2.0 5.0 0.00 0.00 0.00 79 1015.8
20260502103459 57 323 2.0 5.0 0.00 0.00 0.00 79 1015.8
20260502102951 57 236 2.0 5.0 0.00 0.00 0.00 79 1015.7
20260502102225 57 184 2.0 7.0 0.00 0.00 0.00 79 1015.7
20260502101726 57 103 2.0 7.0 0.00 0.00 0.00 79 1015.6
20260502101226 58 68 3.0 6.0 0.00 0.00 0.00 77 1015.5
20260502100721 58 113 3.0 5.0 0.00 0.00 0.00 76 1015.5
20260502100223 59 106 2.0 5.0 0.00 0.00 0.00 74 1015.6
20260502091216 60 83 1.0 5.0 0.00 0.00 0.00 66 1015.4
20260502090714 60 80 1.0 4.0 0.00 0.00 0.00 66 1015.4
20260502090436 60 142 2.0 5.0 0.00 0.00 0.00 66 1015.5
20260502071357 63 281 3.0 10.0 0.00 0.00 0.00 58 1015.1
20260502070629 62 152 2.0 6.0 0.00 0.00 0.00 58 1015.2
20260502070129 62 155 2.0 6.0 0.00 0.00 0.00 58 1015.2
20260502065631 62 149 1.0 4.0 0.00 0.00 0.00 57 1015.1
20260502065358 63 105 1.0 4.0 0.00 0.00 0.00 57 1015.2
20260502064629 63 107 1.0 4.0 0.00 0.00 0.00 57 1015.2
20260502064129 63 170 1.0 4.0 0.00 0.00 0.00 56 1015.1
20260502063629 63 166 2.0 4.0 0.00 0.00 0.00 56 1015.1
20260502063128 63 193 2.0 6.0 0.00 0.00 0.00 56 1015.1
20260502062629 63 172 2.0 6.0 0.00 0.00 0.00 56 1015.1
20260502062131 63 99 2.0 6.0 0.00 0.00 0.00 56 1015.0
20260502061631 63 75 2.0 6.0 0.00 0.00 0.00 58 1014.9
20260502061129 63 159 2.0 4.0 0.00 0.00 0.00 58 1014.9
20260502060632 62 198 2.0 4.0 0.00 0.00 0.00 59 1014.9
20260502060129 62 172 2.0 5.0 0.00 0.00 0.00 59 1014.8
20260502055859 63 109 2.0 5.0 0.00 0.00 0.00 58 1014.8
20260502055129 62 125 2.0 7.0 0.00 0.00 0.00 60 1014.7
20260502054634 63 311 2.0 7.0 0.00 0.00 0.00 60 1014.8
20260502054130 61 99 2.0 5.0 0.00 0.00 0.00 63 1014.7
20260502053629 62 134 2.0 5.0 0.00 0.00 0.00 63 1014.7
20260502053129 61 103 2.0 5.0 0.00 0.00 0.00 63 1014.8
20260502052900 62 104 2.0 5.0 0.00 0.00 0.00 63 1014.7
20260502052130 61 105 3.0 5.0 0.00 0.00 0.00 63 1014.8
20260502051630 61 105 3.0 5.0 0.00 0.00 0.00 64 1014.8
20260502051131 61 104 2.0 3.0 0.00 0.00 0.00 63 1014.9
20260502050630 61 104 2.0 3.0 0.00 0.00 0.00 63 1014.8
20260502050129 62 104 3.0 5.0 0.00 0.00 0.00 63 1014.8
20260502045630 62 105 3.0 5.0 0.00 0.00 0.00 62 1014.8
20260502045129 61 91 3.0 5.0 0.00 0.00 0.00 63 1014.7
20260502044629 61 84 3.0 6.0 0.00 0.00 0.00 63 1014.7
20260502044128 61 80 3.0 6.0 0.00 0.00 0.00 62 1014.7
20260502043904 62 116 4.0 6.0 0.00 0.00 0.00 61 1014.6
20260502043126 61 99 4.0 5.0 0.00 0.00 0.00 60 1014.5
20260502042619 62 97 3.0 5.0 0.00 0.00 0.00 60 1014.5
20260502042347 62 97 3.0 5.0 0.00 0.00 0.00 60 1014.6
20260502041608 62 194 2.0 4.0 0.00 0.00 0.00 58 1014.5
20260502041105 62 115 2.0 4.0 0.00 0.00 0.00 60 1014.5
20260502040835 63 116 2.0 6.0 0.00 0.00 0.00 58 1014.5
20260502040333 62 116 2.0 6.0 0.00 0.00 0.00 61 1014.4
20260502035607 62 65 2.0 5.0 0.00 0.00 0.00 62 1014.4
20260502035104 61 114 3.0 5.0 0.00 0.00 0.00 63 1014.3
20260502034101 62 93 3.0 5.0 0.00 0.00 0.00 62 1014.3
20260502033601 62 140 3.0 6.0 0.00 0.00 0.00 62 1014.2
20260502033102 62 120 2.0 6.0 0.00 0.00 0.00 61 1014.2
20260502032602 63 115 2.0 4.0 0.00 0.00 0.00 61 1014.2
20260502032100 63 115 2.0 5.0 0.00 0.00 0.00 60 1014.2
20260502031602 63 145 2.0 5.0 0.00 0.00 0.00 58 1014.2
20260502031102 63 173 2.0 4.0 0.00 0.00 0.00 59 1014.1
20260502030601 63 93 3.0 5.0 0.00 0.00 0.00 60 1014.1
20260502025836 64 161 2.0 7.0 0.00 0.00 0.00 59 1014.0
20260502025100 64 164 1.0 7.0 0.00 0.00 0.00 57 1014.0
20260502024836 63 14 0.0 2.0 0.00 0.00 0.00 61 1014.0
20260502024053 63 285 0.0 2.0 0.00 0.00 0.00 63 1014.1
20260502023548 64 306 0.0 3.0 0.00 0.00 0.00 60 1014.0
20260502023042 65 310 1.0 3.0 0.00 0.00 0.00 61 1014.0
20260502022542 64 147 2.0 6.0 0.00 0.00 0.00 63 1014.0
20260502022040 63 150 1.0 6.0 0.00 0.00 0.00 64 1014.0
20260502021545 64 102 0.0 2.0 0.00 0.00 0.00 63 1014.1
20260502021040 65 102 0.0 3.0 0.00 0.00 0.00 62 1014.1
20260502020540 64 103 0.0 3.0 0.00 0.00 0.00 62 1014.1
20260502020040 64 101 0.0 2.0 0.00 0.00 0.00 60 1014.2
20260502015539 64 101 1.0 5.0 0.00 0.00 0.00 61 1014.1
20260502015039 65 103 2.0 5.0 0.00 0.00 0.00 60 1014.2
20260502014540 66 40 1.0 4.0 0.00 0.00 0.00 57 1014.2
20260502014038 66 31 2.0 4.0 0.00 0.00 0.00 58 1014.2
20260502013537 67 127 1.0 4.0 0.00 0.00 0.00 57 1014.0
20260502013039 66 48 1.0 4.0 0.00 0.00 0.00 57 1014.1
20260502012806 65 81 2.0 4.0 0.00 0.00 0.00 60 1014.2
20260502012033 65 101 2.0 5.0 0.00 0.00 0.00 60 1014.3
20260502011534 66 66 2.0 5.0 0.00 0.00 0.00 60 1014.4
20260502011034 65 75 2.0 6.0 0.00 0.00 0.00 58 1014.4
20260502010534 65 55 2.0 6.0 0.00 0.00 0.00 58 1014.5
20260502010035 65 35 1.0 6.0 0.00 0.00 0.00 62 1014.4
20260502005534 65 70 2.0 6.0 0.00 0.00 0.00 61 1014.4
20260502005035 65 86 2.0 7.0 0.00 0.00 0.00 65 1014.4
20260502004535 64 108 3.0 7.0 0.00 0.00 0.00 65 1014.3
20260502004030 63 108 3.0 7.0 0.00 0.00 0.00 63 1014.4
20260502003031 65 98 3.0 6.0 0.00 0.00 0.00 59 1014.5
20260502002801 66 95 2.0 6.0 0.00 0.00 0.00 59 1014.6
20260502002030 67 92 1.0 5.0 0.00 0.00 0.00 58 1014.6
20260502001528 68 90 1.0 5.0 0.00 0.00 0.00 59 1014.6
20260502001029 69 13 2.0 6.0 0.00 0.00 0.00 59 1014.6
20260502000529 67 56 2.0 6.0 0.00 0.00 0.00 59 1014.7
20260502000030 67 23 2.0 4.0 0.00 0.00 0.00 62 1014.7
20260501235529 66 350 3.0 4.0 0.00 0.00 0.00 61 1014.7
20260501235028 67 359 3.0 4.0 0.00 0.00 0.00 62 1014.7
20260501234526 67 359 3.0 4.0 0.00 0.00 0.00 62 1014.7
20260501234019 67 352 3.0 4.0 0.00 0.00 0.00 61 1014.7
20260501233516 68 354 3.0 4.0 0.00 0.00 0.00 60 1014.6
20260501233015 69 343 3.0 5.0 0.00 0.00 0.00 59 1014.6
20260501232742 68 353 3.0 5.0 0.00 0.00 0.00 60 1014.7
20260501232245 69 346 2.0 5.0 0.00 0.00 0.00 58 1014.7
20260501231516 71 10 2.0 5.0 0.00 0.00 0.00 56 1014.8
20260501231012 70 10 3.0 4.0 0.00 0.00 0.00 60 1014.8
20260501230510 68 24 3.0 4.0 0.00 0.00 0.00 62 1014.9
20260501230010 68 348 3.0 5.0 0.00 0.00 0.00 59 1014.9
20260501225748 68 336 3.0 5.0 0.00 0.00 0.00 61 1014.9
20260501225009 68 357 3.0 4.0 0.00 0.00 0.00 61 1014.9
20260501224508 67 351 3.0 4.0 0.00 0.00 0.00 62 1015.0
20260501224006 67 13 3.0 4.0 0.00 0.00 0.00 63 1015.1
20260501223503 67 330 3.0 4.0 0.00 0.00 0.00 64 1015.2
20260501223003 67 334 2.0 4.0 0.00 0.00 0.00 63 1015.2
20260501222505 68 36 3.0 4.0 0.00 0.00 0.00 64 1015.2
20260501222004 67 328 3.0 5.0 0.00 0.00 0.00 64 1015.3
20260501221505 68 325 3.0 5.0 0.00 0.00 0.00 62 1015.2
20260501220504 67 329 3.0 5.0 0.00 0.00 0.00 63 1015.4
20260501220002 67 329 2.0 5.0 0.00 0.00 0.00 62 1015.5
20260501215501 67 311 3.0 5.0 0.00 0.00 0.00 63 1015.4
20260501215001 66 330 3.0 5.0 0.00 0.00 0.00 61 1015.4
20260501214501 67 359 3.0 5.0 0.00 0.00 0.00 66 1015.4
20260501214238 67 350 3.0 5.0 0.00 0.00 0.00 64 1015.5
20260501213506 67 345 2.0 5.0 0.00 0.00 0.00 66 1015.5
20260501213006 67 353 2.0 4.0 0.00 0.00 0.00 64 1015.5
20260501212509 66 326 2.0 5.0 0.00 0.00 0.00 64 1015.5
20260501212002 66 334 2.0 5.0 0.00 0.00 0.00 64 1015.6
20260501211501 66 17 2.0 4.0 0.00 0.00 0.00 64 1015.6
20260501211000 67 348 2.0 4.0 0.00 0.00 0.00 63 1015.6
20260501210501 66 19 1.0 3.0 0.00 0.00 0.00 65 1015.7
20260501210005 65 359 2.0 4.0 0.00 0.00 0.00 62 1015.8
20260501205504 65 41 2.0 5.0 0.00 0.00 0.00 64 1015.7
20260501205006 63 357 1.0 5.0 0.00 0.00 0.00 68 1015.8
20260501204727 63 72 1.0 7.0 0.00 0.00 0.00 66 1015.8
20260501204007 63 62 2.0 7.0 0.00 0.00 0.00 66 1015.9
20260501203500 64 28 2.0 3.0 0.00 0.00 0.00 66 1016.0
20260501202957 63 12 2.0 5.0 0.00 0.00 0.00 71 1015.9
20260501202450 63 70 2.0 7.0 0.00 0.00 0.00 69 1016.0
20260501201946 63 18 2.0 7.0 0.00 0.00 0.00 72 1015.9
20260501201444 63 314 3.0 5.0 0.00 0.00 0.00 69 1016.0
20260501201202 63 325 2.0 5.0 0.00 0.00 0.00 69 1015.9
20260501200440 63 340 2.0 4.0 0.00 0.00 0.00 71 1015.9
20260501195938 63 336 1.0 4.0 0.00 0.00 0.00 71 1016.1
20260501195702 63 345 1.0 4.0 0.00 0.00 0.00 72 1016.1
20260501194935 63 314 2.0 6.0 0.00 0.00 0.00 73 1016.2
20260501194700 63 317 2.0 6.0 0.00 0.00 0.00 72 1016.2
20260501193935 63 357 2.0 5.0 0.00 0.00 0.00 73 1016.2
20260501193435 62 327 2.0 8.0 0.00 0.00 0.00 73 1016.2
20260501192934 62 305 2.0 8.0 0.00 0.00 0.00 74 1016.1
20260501192435 63 303 2.0 7.0 0.00 0.00 0.00 75 1016.2
20260501192201 63 18 2.0 7.0 0.00 0.00 0.00 77 1016.2
20260501191433 62 312 2.0 6.0 0.00 0.00 0.00 77 1016.2
20260501190933 63 10 2.0 6.0 0.00 0.00 0.00 76 1016.3
20260501190658 63 10 2.0 4.0 0.00 0.00 0.00 74 1016.3
20260501190152 61 114 2.0 4.0 0.00 0.00 0.00 77 1016.3
20260501185429 62 332 2.0 4.0 0.00 0.00 0.00 75 1016.4
20260501184926 60 5 2.0 6.0 0.00 0.00 0.00 82 1016.4
20260501184648 60 99 2.0 6.0 0.00 0.00 0.00 80 1016.4
20260501184159 60 351 1.0 4.0 0.00 0.00 0.00 79 1016.3
20260501183425 61 341 1.0 6.0 0.00 0.00 0.00 78 1016.4
20260501182924 61 13 1.0 6.0 0.00 0.00 0.00 80 1016.4
20260501182425 60 29 2.0 5.0 0.00 0.00 0.00 81 1016.4
20260501181925 61 317 2.0 5.0 0.00 0.00 0.00 82 1016.4
20260501181425 60 309 2.0 4.0 0.00 0.00 0.00 81 1016.5
20260501180928 60 324 2.0 4.0 0.00 0.00 0.00 80 1016.5
20260501180428 60 290 1.0 4.0 0.00 0.00 0.00 81 1016.4
20260501175931 60 341 1.0 4.0 0.00 0.00 0.00 80 1016.5
20260501175425 60 334 2.0 5.0 0.00 0.00 0.00 79 1016.4
20260501174925 60 40 2.0 5.0 0.00 0.00 0.00 79 1016.4
20260501174426 60 46 2.0 4.0 0.00 0.00 0.00 80 1016.4
20260501173925 60 17 2.0 5.0 0.00 0.00 0.00 81 1016.5
20260501173425 60 105 2.0 5.0 0.00 0.00 0.00 80 1016.5
20260501172925 59 68 1.0 3.0 0.00 0.00 0.00 81 1016.4
20260501172424 58 350 1.0 3.0 0.00 0.00 0.00 81 1016.4
20260501171926 58 84 1.0 3.0 0.00 0.00 0.00 82 1016.4
20260501171425 58 20 1.0 5.0 0.00 0.00 0.00 82 1016.4
20260501170925 57 37 1.0 5.0 0.00 0.00 0.00 83 1016.4
20260501170425 57 62 2.0 6.0 0.00 0.00 0.00 82 1016.4
20260501165925 57 99 2.0 6.0 0.00 0.00 0.00 83 1016.5
20260501165423 57 88 2.0 6.0 0.00 0.00 0.00 82 1016.5
20260501164923 58 66 2.0 5.0 0.00 0.00 0.00 82 1016.5
20260501164421 58 22 1.0 5.0 0.00 0.00 0.00 81 1016.3
20260501163921 58 93 1.0 5.0 0.00 0.00 0.00 82 1016.3
20260501163645 58 64 1.0 5.0 0.00 0.00 0.00 82 1016.4
20260501162920 57 81 1.0 3.0 0.00 0.00 0.00 83 1016.4